GW3755 Weather Reports


time (UTC)temp
C
wind
direction
speed
KPH
gust
KPH
rain 1hr
cm
rain 24hr
cm
rain mn
cm
humidity
%
barometer
mb
20260506113100 17 0 0.0 3.2 0.00 0.00 0.00 81 1015.2
20260506111559 17 0 0.0 3.2 0.00 0.00 0.00 81 1014.7
20260506110106 17 186 1.6 4.8 0.00 0.00 0.00 81 1014.4
20260506104559 16 155 0.0 4.8 0.00 0.00 0.00 82 1014.2
20260506103102 16 213 0.0 6.4 0.00 0.00 0.00 82 1014.0
20260506101613 16 185 0.0 4.8 0.00 0.00 0.00 83 1014.0
20260506100121 16 0 0.0 3.2 0.00 0.00 0.00 82 1013.7
20260506094559 16 198 0.0 4.8 0.00 0.00 0.00 81 1013.8
20260506093100 16 0 1.6 8.0 0.00 0.00 0.00 82 1014.2
20260506091608 16 185 0.0 8.0 0.00 0.00 0.00 81 1013.8
20260506090059 17 0 0.0 8.0 0.00 0.00 0.00 80 1013.8
20260506084624 17 0 0.0 6.4 0.00 0.00 0.00 79 1014.1
20260506083110 17 224 1.6 8.0 0.00 0.00 0.00 78 1014.3
20260506081607 17 171 1.6 9.7 0.00 0.00 0.00 78 1014.3
20260506080105 17 150 1.6 9.7 0.00 0.00 0.00 78 1014.6
20260506073100 17 174 3.2 11.3 0.00 0.00 0.00 77 1014.4
20260506071601 18 244 3.2 16.1 0.00 0.00 0.00 76 1014.3
20260506061558 18 232 3.2 14.5 0.00 0.00 0.00 75 1014.6
20260506050104 18 0 1.6 14.5 0.00 0.00 0.00 70 1015.0
20260506044707 18 217 3.2 12.9 0.00 0.00 0.00 69 1014.8
20260506043110 18 184 1.6 11.3 0.00 0.00 0.00 67 1014.7
20260506041605 18 143 0.0 3.2 0.00 0.00 0.00 65 1014.6
20260506040058 18 0 0.0 3.2 0.00 0.00 0.00 62 1014.5
20260506034627 19 0 0.0 1.6 0.00 0.00 0.00 61 1014.3
20260506033104 19 0 0.0 3.2 0.00 0.00 0.00 60 1014.3
20260506031606 20 0 0.0 3.2 0.00 0.00 0.00 60 1014.5
20260506030059 20 159 0.0 3.2 0.00 0.00 0.00 59 1014.9
20260506024559 20 0 0.0 3.2 0.00 0.00 0.00 58 1014.8
20260506023111 20 177 0.0 3.2 0.00 0.00 0.00 58 1014.5
20260506021600 20 0 0.0 3.2 0.00 0.00 0.00 56 1014.6
20260506020058 20 0 0.0 4.8 0.00 0.00 0.00 56 1014.4
20260506014601 21 0 0.0 4.8 0.00 0.00 0.00 54 1014.8
20260506013059 21 0 0.0 3.2 0.00 0.00 0.00 54 1014.7
20260506011622 21 0 0.0 4.8 0.00 0.00 0.00 54 1014.6
20260506010104 21 0 0.0 1.6 0.00 0.00 0.00 53 1014.5
20260506004626 21 0 0.0 1.6 0.00 0.00 0.00 51 1014.5
20260506003113 22 196 0.0 3.2 0.00 0.00 0.00 50 1014.3
20260506001559 22 0 0.0 6.4 0.00 0.00 0.00 49 1014.3
20260506000101 22 245 0.0 6.4 0.00 0.00 0.00 48 1014.3
20260505234637 23 144 0.0 12.9 0.00 0.00 0.00 47 1014.2
20260505233121 23 178 1.6 9.7 0.00 0.00 0.00 46 1014.1
20260505231601 24 200 1.6 12.9 0.00 0.00 0.00 45 1014.0
20260505230106 25 203 1.6 11.3 0.00 0.00 0.00 44 1014.1
20260505224600 25 195 1.6 22.5 0.00 0.00 0.00 44 1014.2
20260505223058 25 198 3.2 16.1 0.00 0.00 0.00 44 1014.3
20260505221604 25 212 1.6 14.5 0.00 0.00 0.00 42 1014.3
20260505220106 25 200 3.2 16.1 0.00 0.00 0.00 41 1014.4
20260505214606 25 178 3.2 14.5 0.00 0.00 0.00 41 1014.2
20260505213105 26 150 4.8 11.3 0.00 0.00 0.00 40 1014.5
20260505211604 26 153 4.8 17.7 0.00 0.00 0.00 39 1014.5
20260505210059 26 288 1.6 8.0 0.00 0.00 0.00 39 1014.6
20260505204609 26 160 4.8 24.1 0.00 0.00 0.00 39 1014.5
20260505203101 25 0 3.2 14.5 0.00 0.00 0.00 38 1014.6
20260505201605 26 263 1.6 14.5 0.00 0.00 0.00 40 1014.7
20260505200104 26 304 3.2 14.5 0.00 0.00 0.00 39 1015.2
20260505194559 26 258 3.2 12.9 0.00 0.00 0.00 36 1015.6
20260505193101 26 186 4.8 17.7 0.00 0.00 0.00 38 1015.7
20260505191602 26 184 3.2 17.7 0.00 0.00 0.00 39 1015.9
20260505190111 25 144 4.8 12.9 0.00 0.00 0.00 38 1016.0
20260505184606 25 236 1.6 19.3 0.00 0.00 0.00 41 1016.2
20260505183100 26 255 3.2 12.9 0.00 0.00 0.00 41 1016.1
20260505181601 26 156 4.8 11.3 0.00 0.00 0.00 38 1016.7
20260505180104 26 0 3.2 12.9 0.00 0.00 0.00 38 1017.1
20260505174613 26 54 3.2 14.5 0.00 0.00 0.00 42 1017.3
20260505173108 25 0 1.6 9.7 0.00 0.00 0.00 43 1017.3
20260505171608 26 243 1.6 14.5 0.00 0.00 0.00 43 1017.0
20260505170139 25 196 1.6 9.7 0.00 0.00 0.00 43 1017.2
20260505164609 24 240 3.2 12.9 0.00 0.00 0.00 44 1017.3
20260505163109 25 232 1.6 11.3 0.00 0.00 0.00 48 1017.2
20260505161612 24 220 3.2 14.5 0.00 0.00 0.00 50 1017.4
20260505160113 24 203 0.0 11.3 0.00 0.00 0.00 54 1017.5
20260505153107 23 141 1.6 9.7 0.00 0.00 0.00 54 1017.7
20260505151559 22 221 3.2 8.0 0.00 0.00 0.00 58 1018.0
20260505124559 16 234 1.6 12.9 0.00 0.00 0.00 78 1017.5
20260505123115 16 202 1.6 8.0 0.00 0.00 0.00 78 1017.3
20260505120105 13 0 0.0 1.6 0.00 0.00 0.00 83 1017.0
20260505114615 12 0 0.0 1.6 0.00 0.00 0.00 85 1016.8